| time (UTC) | temp F | wind direction | speed knots | gust knots | rain 1hr in | rain 24hr in | rain mn in | humidity % | barometer mb |
| 20260505121529 | 62 | 238 | 3.5 | 8.7 | 0.03 | 0.03 | 0.03 | 24 | 1005.3 |
| 20260505120024 | 61 | 224 | 2.6 | 9.6 | 0.03 | 0.03 | 0.03 | 1 | 1005.2 |
| 20260505114519 | 62 | 206 | 3.5 | 8.7 | 0.03 | 0.03 | 0.03 | 1 | 1005.0 |
| 20260505113016 | 64 | 220 | 3.5 | 7.8 | 0.00 | 0.00 | 0.00 | 41 | 1005.9 |
| 20260505111513 | 64 | 269 | 2.6 | 7.0 | 0.00 | 0.00 | 0.00 | 51 | 1005.5 |
| 20260505101513 | 62 | 225 | 3.5 | 8.7 | 0.00 | 0.00 | 0.00 | 51 | 1004.8 |
| 20260505100009 | 62 | 242 | 3.5 | 12.2 | 0.00 | 0.00 | 0.00 | 51 | 1004.7 |
| 20260505094517 | 62 | 197 | 3.5 | 10.4 | 0.00 | 0.00 | 0.00 | 51 | 1004.4 |
| 20260505093004 | 62 | 217 | 3.5 | 7.8 | 0.00 | 0.00 | 0.00 | 51 | 1004.4 |
| 20260505091506 | 62 | 209 | 1.7 | 9.6 | 0.00 | 0.00 | 0.00 | 51 | 1004.3 |
| 20260505090003 | 61 | 178 | 0.9 | 6.1 | 0.00 | 0.00 | 0.00 | 51 | 1004.3 |
| 20260505084500 | 61 | 223 | 2.6 | 8.7 | 0.00 | 0.00 | 0.00 | 52 | 1004.2 |
| 20260505083103 | 62 | 244 | 0.9 | 7.0 | 0.00 | 0.00 | 0.00 | 52 | 1004.3 |
| 20260505081558 | 62 | 247 | 1.7 | 5.2 | 0.00 | 0.00 | 0.00 | 52 | 1004.3 |
| 20260505080106 | 62 | 236 | 1.7 | 6.1 | 0.00 | 0.00 | 0.00 | 52 | 1004.4 |
| 20260505074554 | 63 | 190 | 1.7 | 6.1 | 0.00 | 0.00 | 0.00 | 51 | 1004.6 |
| 20260505073055 | 63 | 236 | 1.7 | 6.1 | 0.00 | 0.00 | 0.00 | 51 | 1004.3 |
| 20260505071552 | 63 | 223 | 0.9 | 8.7 | 0.00 | 0.00 | 0.00 | 51 | 1004.5 |
| 20260505070055 | 63 | 229 | 2.6 | 8.7 | 0.00 | 0.00 | 0.00 | 50 | 1004.5 |
| 20260505064549 | 64 | 229 | 4.3 | 13.0 | 0.00 | 0.00 | 0.00 | 50 | 1004.5 |
| 20260505063108 | 64 | 223 | 3.5 | 10.4 | 0.00 | 0.00 | 0.00 | 49 | 1004.5 |
| 20260505061546 | 64 | 258 | 5.2 | 13.9 | 0.00 | 0.00 | 0.00 | 49 | 1004.4 |
| 20260505060045 | 64 | 214 | 4.3 | 17.4 | 0.00 | 0.00 | 0.00 | 49 | 1004.6 |
| 20260505054544 | 63 | 234 | 5.2 | 9.6 | 0.00 | 0.00 | 0.00 | 49 | 1004.6 |
| 20260505053049 | 63 | 215 | 4.3 | 9.6 | 0.00 | 0.00 | 0.00 | 49 | 1004.7 |
| 20260505051541 | 63 | 213 | 5.2 | 8.7 | 0.00 | 0.00 | 0.00 | 49 | 1004.7 |
| 20260505041546 | 64 | 183 | 2.6 | 8.7 | 0.00 | 0.00 | 0.00 | 48 | 1004.6 |
| 20260505040038 | 64 | 235 | 3.5 | 8.7 | 0.00 | 0.00 | 0.00 | 47 | 1004.6 |
| 20260505034531 | 64 | 237 | 2.6 | 11.3 | 0.00 | 0.00 | 0.00 | 47 | 1004.6 |
| 20260505033028 | 64 | 229 | 4.3 | 12.2 | 0.00 | 0.00 | 0.00 | 46 | 1004.6 |
| 20260505031538 | 65 | 227 | 4.3 | 10.4 | 0.00 | 0.00 | 0.00 | 46 | 1004.7 |
| 20260505030028 | 65 | 232 | 3.5 | 10.4 | 0.00 | 0.00 | 0.00 | 45 | 1004.7 |
| 20260505024527 | 65 | 216 | 4.3 | 10.4 | 0.00 | 0.00 | 0.00 | 45 | 1004.8 |
| 20260505023027 | 66 | 233 | 3.5 | 9.6 | 0.00 | 0.00 | 0.00 | 44 | 1004.8 |
| 20260505021559 | 66 | 223 | 4.3 | 11.3 | 0.00 | 0.00 | 0.00 | 43 | 1004.9 |
| 20260505020026 | 66 | 229 | 3.5 | 8.7 | 0.00 | 0.00 | 0.00 | 43 | 1004.9 |
| 20260505014532 | 66 | 205 | 2.6 | 8.7 | 0.00 | 0.00 | 0.00 | 42 | 1004.8 |
| 20260505013024 | 66 | 211 | 2.6 | 7.8 | 0.00 | 0.00 | 0.00 | 41 | 1004.7 |
| 20260505011524 | 67 | 219 | 2.6 | 12.2 | 0.00 | 0.00 | 0.00 | 41 | 1004.7 |
| 20260505010026 | 67 | 198 | 4.3 | 10.4 | 0.00 | 0.00 | 0.00 | 41 | 1004.4 |
| 20260505004527 | 67 | 218 | 2.6 | 7.8 | 0.00 | 0.00 | 0.00 | 40 | 1004.4 |
| 20260505003021 | 68 | 229 | 2.6 | 7.8 | 0.00 | 0.00 | 0.00 | 39 | 1004.3 |
| 20260505001521 | 68 | 238 | 3.5 | 7.8 | 0.00 | 0.00 | 0.00 | 38 | 1004.2 |
| 20260505000021 | 69 | 211 | 3.5 | 8.7 | 0.00 | 0.00 | 0.00 | 37 | 1004.0 |
| 20260504234522 | 70 | 232 | 2.6 | 6.1 | 0.00 | 0.00 | 0.00 | 36 | 1004.0 |
| 20260504233023 | 71 | 240 | 3.5 | 8.7 | 0.00 | 0.00 | 0.00 | 35 | 1003.8 |
| 20260504231519 | 72 | 225 | 3.5 | 10.4 | 0.00 | 0.00 | 0.00 | 33 | 1003.9 |
| 20260504230019 | 73 | 213 | 5.2 | 10.4 | 0.00 | 0.00 | 0.00 | 32 | 1003.7 |
| 20260504224520 | 74 | 217 | 4.3 | 7.0 | 0.00 | 0.00 | 0.00 | 32 | 1003.7 |
| 20260504223027 | 74 | 234 | 3.5 | 9.6 | 0.00 | 0.00 | 0.00 | 31 | 1003.8 |
| 20260504221517 | 75 | 209 | 5.2 | 13.0 | 0.00 | 0.00 | 0.00 | 30 | 1003.7 |
| 20260504220018 | 77 | 223 | 2.6 | 8.7 | 0.00 | 0.00 | 0.00 | 29 | 1003.6 |
| 20260504214516 | 77 | 203 | 2.6 | 9.6 | 0.00 | 0.00 | 0.00 | 29 | 1003.6 |
| 20260504213022 | 77 | 209 | 3.5 | 8.7 | 0.00 | 0.00 | 0.00 | 29 | 1003.8 |
| 20260504211512 | 76 | 202 | 4.3 | 12.2 | 0.00 | 0.00 | 0.00 | 29 | 1003.8 |
| 20260504210012 | 77 | 206 | 3.5 | 7.8 | 0.00 | 0.00 | 0.00 | 30 | 1004.1 |
| 20260504204528 | 76 | 223 | 2.6 | 13.0 | 0.00 | 0.00 | 0.00 | 29 | 1004.2 |
| 20260504203010 | 76 | 221 | 2.6 | 13.0 | 0.00 | 0.00 | 0.00 | 29 | 1004.5 |
| 20260504201506 | 77 | 255 | 2.6 | 9.6 | 0.00 | 0.00 | 0.00 | 28 | 1004.6 |
| 20260504200004 | 76 | 226 | 2.6 | 11.3 | 0.00 | 0.00 | 0.00 | 30 | 1004.9 |
| 20260504194604 | 75 | 209 | 6.1 | 12.2 | 0.00 | 0.00 | 0.00 | 30 | 1005.0 |
| 20260504193059 | 73 | 232 | 4.3 | 12.2 | 0.00 | 0.00 | 0.00 | 32 | 1005.1 |
| 20260504191601 | 74 | 241 | 3.5 | 11.3 | 0.00 | 0.00 | 0.00 | 31 | 1005.4 |
| 20260504190055 | 75 | 238 | 4.3 | 12.2 | 0.00 | 0.00 | 0.00 | 30 | 1005.5 |
| 20260504184556 | 75 | 232 | 6.1 | 12.2 | 0.00 | 0.00 | 0.00 | 31 | 1005.7 |
| 20260504183049 | 72 | 223 | 4.3 | 16.5 | 0.00 | 0.00 | 0.00 | 32 | 1005.8 |
| 20260504181548 | 73 | 220 | 7.0 | 13.9 | 0.00 | 0.00 | 0.00 | 32 | 1005.9 |
| 20260504180045 | 72 | 208 | 5.2 | 16.5 | 0.00 | 0.00 | 0.00 | 32 | 1006.0 |
| 20260504174545 | 73 | 222 | 4.3 | 13.9 | 0.00 | 0.00 | 0.00 | 34 | 1006.2 |
| 20260504173042 | 73 | 196 | 4.3 | 12.2 | 0.00 | 0.00 | 0.00 | 32 | 1006.4 |
| 20260504171545 | 73 | 231 | 6.1 | 13.9 | 0.00 | 0.00 | 0.00 | 32 | 1006.4 |